Weather History for Ravenna, OH

Change the Weather History Date:

Friday, December 7, 2012

  Actual Average (KCAK) Record (KCAK)
Temperature  
Mean Temperature 39 °F 33 °F  
Max Temperature 45 °F 40 °F 66 °F (1998)
Min Temperature 33 °F 27 °F 3 °F (1958)
Degree Days  
Heating Degree Days 26 32  
Month to date heating degree days 216  
Since 1 July heating degree days 1475  
Cooling Degree Days 0 0  
Month to date cooling degree days 0  
Year to date cooling degree days 652  
Moisture  
Dew Point 41 °F    
Average Humidity 97    
Maximum Humidity 100    
Minimum Humidity 73    
Precipitation  
Precipitation 0.45 in 0.10 in 0.90 in (1950)
Month to date precipitation 0.69  
Year to date precipitation 37.47  
Snow  
Snow 0.00 in 0.30 in - ()
Month to date snowfall 1.8  
Since 1 July snowfall 5.2  
Snow Depth -    
Sea Level Pressure  
Sea Level Pressure 29.94 in    
Wind  
Wind Speed 1 mph (SSW)    
Max Wind Speed 6 mph    
Max Gust Speed -    
Visibility 4 miles    
Events Fog , Rain    
T = Trace of Precipitation, MM = Missing Value Source: NWS Daily Summary

Daily Weather History Graph

Daily Weather History Graph

Search for Another Location

Airport:

Trip Planner

Search our weather history database for the weather conditions in past years. The results will help you decide how hot, cold, wet, or windy it might be!

Date:

Astronomy

Dec. 07, 2012 Rise Set
Actual Time 7:37 AM EST 4:55 PM EST
Civil Twilight 7:06 AM EST 5:26 PM EST
Nautical Twilight 6:31 AM EST 6:01 PM EST
Astronomical Twilight 5:58 AM EST 6:34 PM EST
Moon 12:51 AM EST (12/7) 12:55 PM EST (12/7)
Length of Visible Light 10h 20m
Length of Day
9h 18m
Last Quarter, 39% of the Moon is Illuminated
Dec 7
Last Quarter
Dec 13
New
Dec 20
First Quarter
Dec 28
Full
Jan 4
Last Quarter

Hourly Weather History & Observations

Time (EST) Temp. Windchill Dew Point Humidity Pressure Visibility Wind Dir Wind Speed Gust Speed Precip Events Conditions
12:15 AM 35.1 °F - 28.2 °F 76% 29.99 in 10.0 mi Calm Calm - N/A   Scattered Clouds
12:35 AM 34.7 °F - 28.4 °F 78% 29.98 in 10.0 mi Calm Calm - N/A   Mostly Cloudy
12:55 AM 34.0 °F - 29.7 °F 84% 29.98 in 10.0 mi Calm Calm - N/A   Overcast
1:15 AM 34.7 °F - 28.4 °F 78% 29.97 in 10.0 mi Calm Calm - N/A   Scattered Clouds
1:35 AM 33.6 °F - 29.8 °F 86% 29.97 in 10.0 mi Calm Calm - N/A   Mostly Cloudy
1:55 AM 35.2 °F - 31.1 °F 85% 29.98 in 10.0 mi Calm Calm - N/A   Overcast
2:15 AM 37.9 °F - 31.5 °F 77% 29.98 in 10.0 mi Calm Calm - N/A   Overcast
2:35 AM 38.3 °F - 30.9 °F 75% 29.99 in 10.0 mi Calm Calm - N/A   Overcast
2:55 AM 39.9 °F - 32.0 °F 73% 29.98 in 10.0 mi Calm Calm - N/A Rain Light Rain
3:15 AM 38.5 °F 36.1 °F 34.5 °F 86% 29.97 in 10.0 mi South 3.5 mph - 0.01 in Rain Rain
3:35 AM 39.0 °F - 35.4 °F 87% 29.97 in 10.0 mi Calm Calm - 0.02 in Rain Rain
3:55 AM 39.4 °F - 39.4 °F 100% 29.97 in 10.0 mi Calm Calm - 0.02 in Rain Light Rain
4:15 AM 39.2 °F - 39.4 °F 100% 29.97 in 7.0 mi Calm Calm - 0.02 in Rain Light Rain
4:35 AM 39.6 °F 35.4 °F 39.7 °F 100% 29.98 in 5.0 mi West 5.8 mph - 0.05 in Rain Light Rain
4:56 AM 39.4 °F - 39.6 °F 100% 29.97 in 4.0 mi Calm Calm - 0.08 in Rain Light Rain
5:15 AM 39.4 °F 37.2 °F 39.6 °F 100% 29.96 in 2.5 mi SE 3.5 mph - 0.02 in Rain Rain
5:35 AM 39.2 °F - 39.4 °F 100% 29.96 in 2.0 mi Calm Calm - 0.04 in Rain Rain
5:55 AM 39.6 °F 36.3 °F 39.7 °F 100% 29.94 in 2.5 mi East 4.6 mph - 0.04 in Rain Light Rain
6:15 AM - - - N/A% 29.94 in 2.5 mi SSE 3.5 mph - 0.01 in   Drizzle
6:35 AM 40.3 °F - 40.5 °F 100% 29.96 in 3.0 mi Calm Calm - 0.01 in   Drizzle
6:56 AM 40.6 °F - 40.8 °F 100% 29.97 in 2.5 mi Calm Calm - 0.03 in Rain Rain
7:15 AM 40.6 °F - 41.0 °F 100% 29.96 in 2.0 mi Calm Calm - 0.01 in   Drizzle
7:35 AM 40.5 °F - 40.5 °F 100% 29.95 in 1.5 mi Calm Calm - 0.01 in   Light Drizzle
7:55 AM 40.6 °F - 40.8 °F 100% 29.97 in 1.8 mi Calm Calm - 0.01 in   Overcast
8:15 AM 41.0 °F - 41.2 °F 100% 29.95 in 1.2 mi Calm Calm - N/A   Overcast
8:35 AM 41.0 °F - 41.0 °F 100% 29.96 in 1.0 mi Calm Calm - N/A   Overcast
8:55 AM 41.5 °F - 41.7 °F 100% 29.97 in 0.8 mi Calm Calm - N/A   Overcast
9:15 AM 41.9 °F 40.0 °F 41.9 °F 100% 29.98 in 0.5 mi West 3.5 mph - N/A Fog Fog
9:35 AM 42.1 °F - 42.3 °F 100% 29.98 in 0.5 mi Calm Calm - N/A Rain Rain
9:55 AM 42.4 °F - 42.6 °F 100% 29.98 in 1.0 mi Calm Calm - 0.01 in   Light Drizzle
10:15 AM 42.8 °F 41.1 °F 42.8 °F 100% 29.98 in 1.2 mi WSW 3.5 mph - N/A   Overcast
10:35 AM 43.0 °F 41.3 °F 43.2 °F 100% 29.98 in 2.5 mi SW 3.5 mph - N/A   Overcast
10:55 AM 43.2 °F 40.5 °F 43.3 °F 100% 29.98 in 3.0 mi WSW 4.6 mph - N/A Rain Rain
11:15 AM - - - N/A% 29.97 in 3.0 mi WSW 3.5 mph - N/A Rain Light Rain
11:35 AM 43.7 °F 41.1 °F 43.7 °F 100% 29.97 in 3.0 mi SW 4.6 mph - N/A   Drizzle
11:55 AM 43.7 °F 41.1 °F 43.9 °F 100% 29.96 in 4.0 mi WSW 4.6 mph - N/A Rain Light Rain
12:15 PM 44.1 °F - 44.2 °F 100% 29.96 in 4.0 mi Calm Calm - N/A   Light Drizzle
12:35 PM 44.2 °F 42.7 °F 44.6 °F 100% 29.95 in 5.0 mi SW 3.5 mph - N/A   Overcast
12:55 PM 44.6 °F 42.2 °F 44.6 °F 100% 29.94 in 5.0 mi SW 4.6 mph - N/A   Overcast
1:15 PM 44.6 °F 43.1 °F 44.6 °F 100% 29.94 in 5.0 mi SW 3.5 mph - N/A Rain Light Rain
1:35 PM 44.6 °F - 44.6 °F 100% 29.93 in 5.0 mi Calm Calm - N/A Rain Rain
1:55 PM 44.6 °F - 44.8 °F 100% 29.92 in 4.0 mi Calm Calm - N/A   Drizzle
2:15 PM 44.6 °F 43.1 °F 44.8 °F 100% 29.92 in 4.0 mi SSW 3.5 mph - 0.01 in   Light Drizzle
2:35 PM 44.8 °F 43.3 °F 45.0 °F 100% 29.92 in 4.0 mi SSW 3.5 mph - 0.01 in   Overcast
2:56 PM - - - N/A% 29.92 in 4.0 mi Calm Calm - 0.01 in   Overcast
3:15 PM - - - N/A% 29.92 in 4.0 mi Calm Calm - N/A   Overcast
3:35 PM 45.5 °F - 45.7 °F 100% 29.92 in 4.0 mi Calm Calm - N/A   Overcast
3:56 PM 45.5 °F - 45.5 °F 100% 29.92 in 4.0 mi Calm Calm - N/A   Mostly Cloudy
4:15 PM 45.5 °F - 45.7 °F 100% 29.92 in 4.0 mi Calm Calm - N/A   Mostly Cloudy
4:35 PM - - - N/A% 29.92 in 4.0 mi Calm Calm - N/A   Scattered Clouds
4:55 PM 44.4 °F - 44.8 °F 100% 29.92 in 4.0 mi Calm Calm - N/A   Mostly Cloudy
5:15 PM 44.6 °F - 44.6 °F 100% 29.92 in 4.0 mi Calm Calm - N/A   Overcast
5:35 PM 44.6 °F - 44.8 °F 100% 29.92 in 5.0 mi Calm Calm - N/A Rain Rain
5:55 PM 43.9 °F - 44.1 °F 100% 29.92 in 4.0 mi Calm Calm - N/A   Drizzle
6:15 PM 44.8 °F - 45.0 °F 100% 29.92 in 5.0 mi Calm Calm - N/A   Drizzle
6:35 PM 44.4 °F - 44.6 °F 100% 29.92 in 5.0 mi Calm Calm - N/A   Drizzle
6:56 PM 44.6 °F - 44.6 °F 100% 29.92 in 4.0 mi Calm Calm - 0.01 in Rain Rain
7:15 PM 44.8 °F - 45.0 °F 100% 29.92 in 5.0 mi Calm Calm - N/A   Drizzle
7:35 PM 44.6 °F - 44.6 °F 100% 29.93 in 2.5 mi Calm Calm - 0.01 in Rain Light Rain
8:15 PM 44.1 °F - 44.4 °F 100% 29.92 in 2.5 mi Calm Calm - 0.01 in Rain Rain
8:35 PM 44.1 °F - 44.4 °F 100% 29.91 in 1.2 mi Calm Calm - 0.02 in Rain Light Rain
8:55 PM 44.2 °F - 44.6 °F 100% 29.90 in 1.0 mi Calm Calm - 0.04 in Rain Light Rain
9:15 PM 43.9 °F - 44.1 °F 100% 29.90 in 1.0 mi Calm Calm - 0.02 in Rain Light Rain
9:35 PM 44.4 °F - 44.6 °F 100% 29.90 in 1.0 mi Calm Calm - 0.03 in Rain Light Rain
9:55 PM 44.1 °F - 44.2 °F 100% 29.89 in 0.8 mi Calm Calm - 0.06 in Rain Rain
10:15 PM 44.1 °F 42.5 °F 44.2 °F 100% 29.88 in 0.8 mi East 3.5 mph - 0.02 in Rain Light Rain
10:35 PM 44.1 °F 42.5 °F 44.2 °F 100% 29.88 in 0.8 mi ENE 3.5 mph - 0.05 in Rain Light Rain
10:55 PM 44.1 °F 41.5 °F 44.2 °F 100% 29.87 in 1.2 mi East 4.6 mph - 0.08 in Rain Light Rain
11:15 PM 44.6 °F - 44.6 °F 100% 29.87 in 2.0 mi Calm Calm - 0.03 in Rain Light Rain
11:36 PM 44.4 °F 42.9 °F 44.6 °F 100% 29.87 in 1.8 mi ENE 3.5 mph - 0.04 in Rain Light Rain
11:55 PM 44.2 °F 42.7 °F 44.6 °F 100% 29.87 in 2.5 mi ENE 3.5 mph - 0.05 in Rain Light Rain